Regional Weather Roundup
Issued by NWS

Home | Current Version | Previous Version | Text Only | Print | Product List | Glossary On
Versions: 1 2 3 4 5 6 7 8 9 10 11 12 13 14 15 16 17 18 19 20 21 22 23 24 25 26 27 28 29 30 31 32 33 34 35 36 37 38 39 40 41 42 43 44 45 46 47 48 49 50
959
ASUS44 KFWD 281603
RWRTX
NORTH TEXAS HOURLY WEATHER ROUNDUP
NATIONAL WEATHER SERVICE FORT WORTH TX
1100 AM CDT SAT MAY 28 2016

NOTE: "FAIR" INDICATES FEW OR NO CLOUDS BELOW 12,000 FEET WITH NO
SIGNIFICANT WEATHER AND/OR OBSTRUCTIONS TO VISIBILITY.

TXZ118-119-281700-
DALLAS/FORT WORTH METROPLEX

CITY           SKY/WX    TMP DP  RH WIND       PRES   REMARKS
DFW AIRPORT    CLOUDY    73  65  75 S6        29.96R
DALLAS LOVE    CLOUDY    74  65  73 S7        29.97R
FTW MEACHAM    CLOUDY    74  66  76 S10       29.95S
DAL-EXECUTIVE  CLOUDY    70  65  84 CALM      29.96S
FTW-ALLIANCE   CLOUDY    73  66  78 SE7       29.96R
FTW-NAS-JRB    CLOUDY    73  67  81 S10       29.96R
FTW-SPINKS     CLOUDY    72  66  83 CALM      29.97S FOG
ARLINGTON      CLOUDY    73  66  78 SE5       29.96S
ADDISON        PTSUNNY   73  66  78 S3        29.97S
LANCASTER      CLOUDY    69  64  84 CALM      29.98S
$$

TXZ091>094-102>105-117-120-121-131>134-281700-
NORTH CENTRAL TEXAS

CITY           SKY/WX    TMP DP  RH WIND       PRES   REMARKS
SHRMAN/DENISON MOSUNNY   71  61  70 S3        29.98S
BRIDGEPORT     SUNNY     78  68  72 S7        29.96R
DECATUR        MOSUNNY   74  67  77 S8        29.96R
DENTON         CLOUDY    74  65  73 S7        29.96R
MCKINNEY       PTSUNNY   73  64  73 VRB5      29.98R
GREENVILLE     CLOUDY    72  64  78 S6        29.99R
ROCKWALL       CLOUDY    72  68  86 S7        29.97S
TERRELL        CLOUDY    70  66  87 CALM      29.99R
WAXAHACHIE     CLOUDY    69  68  98 CALM      29.98S
CLEBURNE       CLOUDY    70  70 100 CALM      29.98S FOG
GRANBURY       CLOUDY    74  68  82 S7        29.97S
$$

TXZ083>090-098>101-113>116-127>130-139>142-154-155-281700-
WESTERN NORTH TEXAS

CITY           SKY/WX    TMP DP  RH WIND       PRES   REMARKS
WICHITA FALLS  MOSUNNY   74  66  76 NW8       29.94R
WF-KICKAPOO    SUNNY     79  63  58 W6        29.94S
VERNON         SUNNY     75  53  46 N6        29.96S
ABILENE        SUNNY     82  67  60 SW12      29.97S
MINERAL WELLS  SUNNY     76  68  76 SE10      29.94S
STEPHENVILLE   CLOUDY    69  67  93 CALM      29.99S
COMANCHE       PTSUNNY   75  71  88 SW8       29.97S
BROWNWOOD      PTSUNNY   75  70  83 S8        29.97S
COLEMAN        SUNNY     75  67  74 S3        29.98R
$$

TXZ143>147-156>162-174-175-281700-
CENTRAL TEXAS

CITY           SKY/WX    TMP DP  RH WIND       PRES   REMARKS
WACO           PTSUNNY   80  70  71 SW12      29.95S
WACO-MCGREGOR  CLOUDY   N/A N/A N/A S12         N/A
HILLSBORO      CLOUDY    71  69  92 SW7       29.97R
CORSICANA      CLOUDY    73  67  81 CALM      29.98R
MEXIA          CLOUDY    76  71  84 SW13G22   29.95S
HEARNE         CLOUDY    75  71  88 CALM      29.97S
CAMERON        CLOUDY    77  72  84 SW7       29.96S
TEMPLE         CLOUDY    75  72  90 S9        29.96S
KILLEEN        CLOUDY    74  73  95 S8        29.96R
KILLEEN-SKYLRK CLOUDY    77  73  87 S10       29.96S
FORT HOOD      CLOUDY    72  71  98 SW10      29.94S
GATESVILLE     PTSUNNY   75  72  88 S8        29.98S
HAMILTON       CLOUDY    74  74 100 S15       29.98R FOG
LAMPASAS       CLOUDY    76  74  93 S10       29.97R
$$

TXZ095>097-106>112-122>126-135>138-148>153-164>167-281700-
EAST TEXAS

CITY           SKY/WX    TMP DP  RH WIND       PRES   REMARKS
PARIS          CLOUDY    70  57  64 W6        30.00R
SULPHUR SPRNGS CLOUDY    70  65  84 W5        30.01R
MOUNT PLEASANT CLOUDY    69  65  86 CALM      30.01R
MINEOLA        CLOUDY    70  64  83 CALM      30.00R
TYLER          CLOUDY    71  64  78 NW6       29.98S
LONGVIEW       MOSUNNY   77  69  76 W6        29.98R
MARSHALL       MOSUNNY   75  67  75 SW5       30.00R
ATHENS         CLOUDY    70  68  94 CALM      29.97R
PALESTINE      CLOUDY    73  68  86 SW5       29.98S
JACKSONVILLE   CLOUDY    73  69  89 W7        30.00R
CENTER         FAIR      80  71  72 SW10G17   29.97R
NACOGDOCHES    PTSUNNY   77  70  78 W7        29.98R
LUFKIN         MOSUNNY   78  70  76 SW7       29.97R
$$

SUPPLEMENTAL OBSERVATIONS (CENTRAL)

CITY           SKY/WX    TMP DP  RH WIND       PRES   REMARKS
$$

SUPPLEMENTAL OBSERVATIONS (WEST)

CITY           SKY/WX    TMP DP  RH WIND       PRES   REMARKS
$$

SUPPLEMENTAL OBSERVATIONS (EAST)

CITY           SKY/WX    TMP DP  RH WIND       PRES   REMARKS
$$

SUPPLEMENTAL OBSERVATIONS ARE A COLLECTION OF AUTOMATED INSTRUMENTS
THAT ARE MAINTAINED BY A VARIETY OF FEDERAL AND STATE AGENCIES.
CERTAIN ELEMENTS...SUCH AS HUMIDITY VALUES AND SUSTAINED WIND
SPEEDS...MAY BE APPROXIMATED.





USA.gov is the U.S. government's official web portal to all federal, state and local government web resources and services.